Погода в Мугур-Аксы

Россия / Республика Тыва     50°22′57″N   90°25′57″E
темп.,
°C
ветер,
м/с
пор.,
м/с
влажн.,
%
обл.,
%
осадки,
мм/ч
давл.,
гПа
погр.,
м
19 июня, сб
сб1901:00+8ююз22650 0.4 101012
04:00+7ююз11664 0.0 100912
07:00+11ю23570 0.0 1009176
10:00+15ю23410 0.0 10061337
13:00+18ю553070 0.0 10043000
16:00+17ссз243289 0.1 10031757
19:00+14в334766 0.1 1003582
22:00+11ююв2361100 0.1 100550
20 июня, вс
вс2001:00+10юв1266100 0.3 100414
04:00+9ю2270100 0.0 100317
07:00+11ююз225976 0.0 1003186
10:00+15ююз2340100 0.0 10021981
13:00+16ююв4336100 0.0 10012207
16:00+14зсз125098 0.4 1001465
19:00+15сз1146100 0.5 1000851
22:00+8зсз348490 5.4 1005349
21 июня, пн
пн2101:00+8ссз2285100 6.0 1004302
04:00+6з3463100 0.6 1005721
07:00+5з46480 0.6 1008912
10:00+6юз35360 0.0 10101366
13:00+10ююз24305 0.0 10081775
16:00+14ю362347 0.0 10062683
19:00+13ю342557 0.0 10051703
22:00+8вюв01444 0.0 100712
22 июня, вт
вт2201:00+7ююв23484 0.0 100733
04:00+5ю345398 0.0 100867
07:00+8ю45495 0.0 1006430
10:00+12ю4639100 0.0 10051399
13:00+14ююз4631100 0.0 10032454
16:00+15юз4629100 0.1 10032644
19:00+13зюз5625100 0.1 10031610
22:00+8зюз3850100 0.1 10081217
23 июня, ср
ср2301:00+4сз238020 0.3 1009131
04:00+3зсз228467 0.1 101184
07:00+4сз126355 0.1 1011553
10:00+7зюз0441100 0.3 10101934
13:00+7ссв1354100 1.1 10111335
16:00+5с3273100 1.2 1011713
19:00+1с33100100 11.0 1014101
22:000зсз229845 2.1 101678